contact:dominique.lefevre@mio.osupytheas.fr, maurice.libes@osupytheas.fr, didier.mallarino@osupytheas.fr
Project:EMSO http://www.emso-fr.org/EMSO-France
Depth: 2436.0 m
Title:EMSO Ligure Ouest : Data MII capteur AQUADOPP
Date,Latitude,Longitude,X_East,Y_North,Z_Up,Amplitude_X,Amplitude_Y,Amplitude_Z,Batterie,SoundSpeed,Heading,Pitch,Roll,Pressure,TIS,Speed,Direction
, degrees North, degrees East, m.s-1, m.s-1,m.s-1, 1, 1, 1, Volt, m.s-1, degree, degree, degree, dbar, degree_C, m.s-1, degree
2023-12-20T00:04:03,42.805,6.029,0.01,0.028,-0.011,107.0,105.0,104.0,13.4,1505.2,354.2,-0.8,1.8,2471.533,13.29,0.029,19.6
2023-12-20T00:07:03,42.805,6.029,0.013,-0.006,-0.01,107.0,105.0,103.0,13.4,1505.2,3.3,-0.8,1.8,2471.556,13.29,0.014,114.8
2023-12-20T00:10:03,42.805,6.029,0.021,0.006,0.008,105.0,105.0,103.0,13.4,1505.2,339.2,-0.8,1.8,2471.559,13.29,0.021,74.1
2023-12-20T00:13:03,42.805,6.029,0.012,0.019,-0.007,105.0,105.0,103.0,13.4,1505.2,346.7,-0.8,1.8,2471.489,13.29,0.022,32.3
2023-12-20T00:16:03,42.805,6.029,0.028,0.007,0.003,106.0,105.0,103.0,13.4,1505.2,348.8,-0.7,1.8,2471.543,13.29,0.028,76.0
2023-12-20T00:19:03,42.805,6.029,0.021,0.006,-0.023,104.0,106.0,103.0,13.4,1505.2,350.3,-0.7,1.8,2471.523,13.29,0.021,74.1
2023-12-20T00:22:03,42.805,6.029,0.0,0.021,-0.008,106.0,103.0,104.0,13.4,1505.2,350.5,-0.8,1.8,2471.523,13.29,0.021,0.0
2023-12-20T00:25:03,42.805,6.029,0.001,0.022,-0.011,103.0,108.0,102.0,13.3,1505.2,346.8,-0.7,1.8,2471.519,13.29,0.022,2.6
2023-12-20T00:28:03,42.805,6.029,0.019,0.009,-0.036,105.0,106.0,102.0,13.4,1505.2,347.4,-0.8,1.8,2471.53,13.29,0.021,64.7
2023-12-20T00:31:03,42.805,6.029,0.003,0.021,-0.001,105.0,104.0,103.0,13.3,1505.2,0.0,-0.8,1.8,2471.526,13.29,0.021,8.1
2023-12-20T00:34:03,42.805,6.029,0.005,0.026,-0.017,105.0,105.0,103.0,13.4,1505.2,354.0,-0.8,1.9,2471.51,13.29,0.026,10.9
2023-12-20T00:37:03,42.805,6.029,0.016,0.015,0.0,105.0,105.0,103.0,13.4,1505.2,348.0,-0.8,1.8,2471.523,13.29,0.021,46.9
2023-12-20T00:40:03,42.805,6.029,0.009,0.02,-0.001,105.0,105.0,103.0,13.4,1505.2,359.2,-0.8,1.8,2471.514,13.29,0.021,24.2
2023-12-20T00:43:03,42.805,6.029,0.02,0.027,0.015,104.0,105.0,103.0,13.3,1505.2,350.3,-0.8,1.8,2471.485,13.29,0.033,36.5
2023-12-20T00:46:03,42.805,6.029,-0.003,-0.003,-0.032,105.0,105.0,104.0,13.3,1505.2,348.8,-0.8,1.8,2471.519,13.29,0.004,225.0
2023-12-20T00:49:03,42.805,6.029,0.025,0.014,-0.009,107.0,104.0,103.0,13.3,1505.2,350.0,-0.8,1.8,2471.513,13.29,0.028,60.7
2023-12-20T00:52:03,42.805,6.029,0.023,0.025,-0.013,106.0,105.0,105.0,13.4,1505.2,358.4,-0.8,1.8,2471.493,13.29,0.033,42.6
2023-12-20T00:55:03,42.805,6.029,0.002,0.022,-0.011,106.0,105.0,103.0,13.4,1505.2,338.3,-0.7,1.8,2471.473,13.29,0.022,5.2
2023-12-20T00:58:03,42.805,6.029,0.013,0.01,0.0,105.0,106.0,103.0,13.4,1505.2,355.7,-0.8,1.8,2471.489,13.29,0.016,52.4
2023-12-20T01:04:03,42.805,6.029,0.018,0.033,0.001,106.0,107.0,103.0,13.4,1505.2,3.0,-0.8,1.8,2471.518,13.29,0.037,28.6
2023-12-20T01:07:03,42.805,6.029,0.024,0.029,-0.001,105.0,105.0,103.0,13.3,1505.2,338.2,-0.8,1.8,2471.558,13.29,0.037,39.6
2023-12-20T01:10:03,42.805,6.029,0.013,0.015,-0.009,106.0,105.0,103.0,13.4,1505.2,344.6,-0.8,1.8,2471.548,13.29,0.019,40.9
2023-12-20T01:13:03,42.805,6.029,0.006,0.02,-0.002,104.0,105.0,104.0,13.4,1505.2,357.4,-0.7,1.8,2471.541,13.29,0.02,16.7
2023-12-20T01:16:03,42.805,6.029,0.017,0.024,-0.025,105.0,106.0,103.0,13.3,1505.2,344.7,-0.8,1.8,2471.546,13.29,0.029,35.3
2023-12-20T01:19:03,42.805,6.029,-0.003,0.006,-0.023,106.0,107.0,104.0,13.4,1505.2,349.2,-0.8,1.8,2471.535,13.29,0.006,333.4
2023-12-20T01:22:03,42.805,6.029,0.021,-0.001,-0.025,105.0,105.0,104.0,13.4,1505.2,1.6,-0.8,1.8,2471.527,13.29,0.021,92.7
2023-12-20T01:25:03,42.805,6.029,0.005,0.015,-0.023,106.0,105.0,103.0,13.4,1505.2,343.8,-0.7,1.8,2471.511,13.29,0.015,18.4
2023-12-20T01:28:03,42.805,6.029,0.01,0.016,-0.05,107.0,104.0,104.0,13.3,1505.2,344.9,-0.7,1.8,2471.53,13.3,0.018,32.0
2023-12-20T01:31:03,42.805,6.029,0.029,0.004,-0.004,106.0,107.0,102.0,13.4,1505.2,346.8,-0.8,1.8,2471.524,13.3,0.029,82.2
2023-12-20T01:34:03,42.805,6.029,0.011,0.022,-0.031,105.0,106.0,102.0,13.4,1505.2,351.2,-0.7,1.8,2471.489,13.3,0.024,26.6
2023-12-20T01:37:03,42.805,6.029,0.033,0.003,0.009,107.0,106.0,104.0,13.4,1505.2,1.5,-0.7,1.8,2471.545,13.3,0.033,84.8
2023-12-20T01:40:03,42.805,6.029,0.015,0.009,-0.018,106.0,105.0,103.0,13.4,1505.2,349.8,-0.7,1.8,2471.52,13.3,0.017,59.0
2023-12-20T01:43:03,42.805,6.029,0.004,0.0,-0.046,106.0,105.0,104.0,13.4,1505.2,355.1,-0.7,1.8,2471.478,13.3,0.004,90.0
2023-12-20T01:46:03,42.805,6.029,0.01,0.019,-0.01,106.0,106.0,103.0,13.4,1505.2,346.8,-0.7,1.8,2471.486,13.3,0.021,27.8
2023-12-20T01:49:03,42.805,6.029,0.008,0.006,-0.005,106.0,104.0,105.0,13.4,1505.2,345.5,-0.8,1.8,2471.523,13.3,0.01,53.1
2023-12-20T01:52:03,42.805,6.029,0.019,0.02,-0.029,107.0,105.0,104.0,13.4,1505.2,0.0,-0.7,1.8,2471.468,13.3,0.027,43.5
2023-12-20T01:55:03,42.805,6.029,-0.002,0.0,0.001,105.0,106.0,103.0,13.3,1505.2,356.9,-0.7,1.8,2471.492,13.3,0.002,270.0
2023-12-20T01:58:03,42.805,6.029,0.028,0.008,0.031,108.0,105.0,103.0,13.4,1505.2,344.9,-0.8,1.8,2471.48,13.3,0.029,74.1
2023-12-20T02:04:03,42.805,6.029,0.006,0.023,-0.011,106.0,106.0,103.0,13.4,1505.2,347.2,-0.8,1.8,2471.535,13.29,0.023,14.6
2023-12-20T02:07:03,42.805,6.029,0.005,0.004,0.009,106.0,107.0,102.0,13.4,1505.2,2.5,-0.7,1.8,2471.552,13.29,0.006,51.3
2023-12-20T02:10:03,42.805,6.029,0.023,-0.003,-0.016,105.0,106.0,104.0,13.3,1505.2,355.6,-0.7,1.8,2471.5,13.29,0.023,97.4
2023-12-20T02:13:03,42.805,6.029,0.036,-0.002,-0.023,106.0,106.0,103.0,13.3,1505.2,348.2,-0.8,1.8,2471.513,13.3,0.036,93.2
2023-12-20T02:16:03,42.805,6.029,0.043,-0.006,-0.015,105.0,106.0,104.0,13.4,1505.2,355.3,-0.8,1.8,2471.488,13.29,0.043,97.9
2023-12-20T02:19:03,42.805,6.029,0.022,0.001,-0.008,105.0,106.0,102.0,13.4,1505.2,355.1,-0.8,1.8,2471.499,13.29,0.022,87.4
2023-12-20T02:22:03,42.805,6.029,0.013,0.028,0.011,107.0,106.0,103.0,13.4,1505.2,344.8,-0.8,1.8,2471.503,13.29,0.03,24.9
2023-12-20T02:25:03,42.805,6.029,0.012,0.013,0.02,106.0,106.0,104.0,13.4,1505.2,344.8,-0.8,1.8,2471.51,13.29,0.017,42.7
2023-12-20T02:28:03,42.805,6.029,0.015,0.021,0.008,105.0,106.0,103.0,13.3,1505.2,347.8,-0.8,1.8,2471.503,13.29,0.025,35.5
2023-12-20T02:31:03,42.805,6.029,0.017,-0.003,-0.029,107.0,105.0,104.0,13.4,1505.2,0.0,-0.8,1.8,2471.457,13.29,0.017,100.0
2023-12-20T02:34:03,42.805,6.029,0.04,0.021,0.003,105.0,107.0,103.0,13.4,1505.2,0.7,-0.8,1.8,2471.508,13.29,0.045,62.3
2023-12-20T02:37:03,42.805,6.029,0.023,0.02,-0.01,105.0,106.0,103.0,13.4,1505.2,343.8,-0.7,1.8,2471.521,13.29,0.03,49.0
2023-12-20T02:40:03,42.805,6.029,0.011,0.0,-0.02,105.0,105.0,103.0,13.3,1505.2,343.1,-0.8,1.8,2471.54,13.29,0.011,90.0
2023-12-20T02:43:03,42.805,6.029,0.021,0.017,0.029,105.0,105.0,103.0,13.4,1505.2,344.6,-0.8,1.8,2471.46,13.29,0.027,51.0
2023-12-20T02:46:03,42.805,6.029,0.018,0.009,-0.015,106.0,106.0,101.0,13.4,1505.2,359.1,-0.7,1.8,2471.498,13.29,0.02,63.4
2023-12-20T02:49:03,42.805,6.029,0.02,-0.001,-0.013,106.0,106.0,103.0,13.4,1505.2,356.5,-0.7,1.8,2471.496,13.29,0.02,92.9
2023-12-20T02:52:03,42.805,6.029,0.037,-0.001,-0.014,107.0,105.0,104.0,13.4,1505.2,351.3,-0.8,1.8,2471.475,13.29,0.037,91.5
2023-12-20T02:55:03,42.805,6.029,0.013,0.006,-0.032,105.0,106.0,103.0,13.4,1505.2,2.3,-0.8,1.8,2471.491,13.29,0.014,65.2
2023-12-20T02:58:03,42.805,6.029,0.008,0.009,0.004,105.0,107.0,102.0,13.4,1505.2,337.5,-0.7,1.8,2471.484,13.29,0.012,41.6
2023-12-20T03:04:03,42.805,6.029,0.004,0.021,-0.011,106.0,107.0,104.0,13.3,1505.2,347.5,-0.8,1.8,2471.509,13.29,0.021,10.8
2023-12-20T03:07:03,42.805,6.029,0.025,0.0,-0.01,105.0,106.0,104.0,13.3,1505.2,3.2,-0.8,1.8,2471.502,13.29,0.025,90.0
2023-12-20T03:10:03,42.805,6.029,0.002,0.003,-0.003,107.0,108.0,103.0,13.3,1505.2,342.2,-0.8,1.8,2471.506,13.29,0.003,33.7
2023-12-20T03:13:03,42.805,6.029,0.019,-0.005,-0.023,107.0,105.0,103.0,13.3,1505.2,357.5,-0.8,1.9,2471.531,13.29,0.019,104.7
2023-12-20T03:16:03,42.805,6.029,0.004,0.009,-0.019,108.0,105.0,103.0,13.4,1505.2,347.7,-0.8,1.8,2471.51,13.29,0.009,24.0
2023-12-20T03:19:03,42.805,6.029,0.025,-0.014,-0.028,107.0,107.0,103.0,13.4,1505.2,2.5,-0.8,1.8,2471.498,13.29,0.028,119.3
2023-12-20T03:22:03,42.805,6.029,0.018,0.007,-0.017,107.0,106.0,103.0,13.4,1505.2,339.0,-0.8,1.8,2471.509,13.29,0.019,68.8
2023-12-20T03:25:03,42.805,6.029,0.03,-0.015,0.011,106.0,106.0,103.0,13.3,1505.2,357.5,-0.7,1.8,2471.514,13.29,0.033,116.6
2023-12-20T03:28:03,42.805,6.029,0.016,0.006,-0.017,106.0,106.0,103.0,13.4,1505.2,358.4,-0.8,1.8,2471.491,13.29,0.017,69.4
2023-12-20T03:31:03,42.805,6.029,0.022,0.002,-0.012,105.0,106.0,104.0,13.4,1505.2,340.5,-0.8,1.8,2471.489,13.29,0.022,84.8
2023-12-20T03:34:03,42.805,6.029,0.024,0.004,-0.011,105.0,106.0,103.0,13.3,1505.2,357.5,-0.8,1.8,2471.51,13.29,0.024,80.5
2023-12-20T03:37:03,42.805,6.029,0.01,-0.006,0.004,109.0,107.0,103.0,13.4,1505.2,354.7,-0.8,1.8,2471.478,13.29,0.011,121.0
2023-12-20T03:40:03,42.805,6.029,0.034,-0.003,-0.011,108.0,106.0,103.0,13.4,1505.2,354.1,-0.7,1.8,2471.478,13.29,0.034,95.0
2023-12-20T03:43:03,42.805,6.029,0.016,0.0,-0.023,106.0,106.0,104.0,13.4,1505.2,3.2,-0.7,1.8,2471.48,13.29,0.016,90.0
2023-12-20T03:46:03,42.805,6.029,0.024,0.01,-0.018,107.0,106.0,103.0,13.4,1505.2,343.6,-0.8,1.8,2471.468,13.29,0.026,67.4
2023-12-20T03:49:03,42.805,6.029,0.014,0.005,-0.023,106.0,105.0,104.0,13.4,1505.2,352.9,-0.8,1.8,2471.43,13.29,0.014,70.4
2023-12-20T03:52:03,42.805,6.029,0.024,0.002,-0.016,106.0,107.0,103.0,13.4,1505.2,356.0,-0.7,1.8,2471.459,13.29,0.024,85.2
2023-12-20T03:55:03,42.805,6.029,0.023,-0.016,-0.023,107.0,107.0,104.0,13.4,1505.2,349.7,-0.7,1.8,2471.437,13.29,0.028,124.8
2023-12-20T03:58:03,42.805,6.029,0.007,0.006,-0.017,106.0,108.0,104.0,13.3,1505.2,347.9,-0.8,1.8,2471.469,13.29,0.009,49.4
2023-12-20T04:04:03,42.805,6.029,0.012,0.005,0.017,105.0,107.0,103.0,13.4,1505.2,357.3,-0.8,1.8,2471.506,13.29,0.013,67.4
2023-12-20T04:07:03,42.805,6.029,0.013,-0.025,-0.022,105.0,106.0,103.0,13.3,1505.2,0.0,-0.8,1.8,2471.483,13.29,0.028,152.5
2023-12-20T04:10:03,42.805,6.029,0.014,0.004,0.011,107.0,105.0,103.0,13.4,1505.2,341.0,-0.8,1.8,2471.488,13.29,0.014,74.1
2023-12-20T04:13:04,42.805,6.029,0.028,0.002,-0.027,106.0,108.0,104.0,13.4,1505.2,352.9,-0.8,1.8,2471.465,13.29,0.028,85.9
2023-12-20T04:16:03,42.805,6.029,0.033,-0.017,-0.009,107.0,106.0,103.0,13.4,1505.2,346.1,-0.8,1.8,2471.473,13.29,0.037,117.3
2023-12-20T04:19:03,42.805,6.029,0.017,0.008,-0.029,106.0,107.0,102.0,13.4,1505.2,349.4,-0.8,1.8,2471.508,13.29,0.018,64.8
2023-12-20T04:22:03,42.805,6.029,0.023,-0.001,-0.01,107.0,106.0,104.0,13.3,1505.2,2.4,-0.8,1.8,2471.46,13.29,0.023,92.5
2023-12-20T04:25:03,42.805,6.029,0.016,-0.005,-0.012,105.0,107.0,103.0,13.3,1505.2,357.7,-0.7,1.8,2471.496,13.29,0.016,107.4
2023-12-20T04:28:03,42.805,6.029,0.024,-0.001,0.008,106.0,105.0,104.0,13.4,1505.2,341.5,-0.7,1.8,2471.469,13.29,0.024,92.4
2023-12-20T04:31:03,42.805,6.029,0.01,-0.006,0.001,107.0,105.0,103.0,13.4,1505.2,356.7,-0.8,1.8,2471.496,13.29,0.011,121.0
2023-12-20T04:34:03,42.805,6.029,0.027,-0.001,-0.002,106.0,106.0,102.0,13.4,1505.2,353.1,-0.8,1.8,2471.451,13.29,0.027,92.1
2023-12-20T04:37:03,42.805,6.029,0.014,0.0,0.009,106.0,105.0,103.0,13.4,1505.2,0.8,-0.7,1.8,2471.433,13.29,0.014,90.0
2023-12-20T04:40:03,42.805,6.029,0.024,-0.018,-0.014,107.0,107.0,103.0,13.3,1505.2,340.8,-0.8,1.8,2471.428,13.29,0.03,126.9
2023-12-20T04:43:03,42.805,6.029,0.025,-0.004,0.0,106.0,107.0,105.0,13.4,1505.2,350.7,-0.7,1.8,2471.459,13.29,0.025,99.1
2023-12-20T04:46:03,42.805,6.029,0.024,-0.014,-0.042,107.0,106.0,103.0,13.4,1505.2,356.5,-0.8,1.8,2471.471,13.29,0.027,120.3
2023-12-20T04:49:03,42.805,6.029,0.018,-0.001,-0.006,106.0,106.0,104.0,13.4,1505.2,0.8,-0.8,1.8,2471.423,13.29,0.018,93.2
2023-12-20T04:52:03,42.805,6.029,0.018,0.0,-0.004,106.0,106.0,104.0,13.4,1505.2,345.0,-0.8,1.8,2471.443,13.29,0.018,90.0
2023-12-20T04:55:03,42.805,6.029,0.016,-0.003,0.004,106.0,106.0,103.0,13.4,1505.2,355.7,-0.8,1.8,2471.47,13.29,0.016,100.6
2023-12-20T04:58:03,42.805,6.029,0.036,0.0,-0.007,107.0,107.0,103.0,13.4,1505.2,0.0,-0.8,1.8,2471.478,13.29,0.036,90.0
2023-12-20T05:04:03,42.805,6.029,0.023,-0.005,-0.035,105.0,105.0,103.0,13.4,1505.2,342.3,-0.7,1.8,2471.501,13.29,0.023,102.3
2023-12-20T05:07:03,42.805,6.029,0.024,-0.005,0.013,106.0,105.0,102.0,13.4,1505.2,352.3,-0.8,1.8,2471.453,13.29,0.024,101.8
2023-12-20T05:10:03,42.805,6.029,0.025,-0.008,0.026,107.0,105.0,103.0,13.3,1505.2,353.0,-0.8,1.8,2471.497,13.29,0.026,107.7
2023-12-20T05:13:03,42.805,6.029,0.023,0.011,0.034,106.0,106.0,103.0,13.4,1505.2,359.1,-0.8,1.8,2471.462,13.29,0.025,64.4
2023-12-20T05:16:03,42.805,6.029,0.01,-0.004,-0.018,106.0,107.0,104.0,13.3,1505.2,2.3,-0.8,1.8,2471.505,13.29,0.01,111.8
2023-12-20T05:19:03,42.805,6.029,0.007,-0.006,-0.017,106.0,108.0,104.0,13.4,1505.2,347.0,-0.8,1.8,2471.476,13.29,0.009,130.6
2023-12-20T05:22:03,42.805,6.029,-0.001,0.003,-0.032,105.0,106.0,103.0,13.3,1505.2,349.2,-0.7,1.8,2471.481,13.29,0.003,341.6
2023-12-20T05:25:03,42.805,6.029,0.033,-0.018,0.01,106.0,106.0,103.0,13.4,1505.2,1.6,-0.8,1.8,2471.471,13.29,0.037,118.6
2023-12-20T05:28:03,42.805,6.029,0.037,0.001,0.032,106.0,105.0,103.0,13.4,1505.2,350.5,-0.7,1.8,2471.444,13.29,0.037,88.5
2023-12-20T05:31:03,42.805,6.029,0.023,-0.002,0.009,107.0,106.0,104.0,13.4,1505.2,351.3,-0.8,1.8,2471.452,13.29,0.023,95.0
2023-12-20T05:34:03,42.805,6.029,0.027,-0.014,-0.002,107.0,106.0,103.0,13.4,1505.2,353.5,-0.8,1.8,2471.442,13.29,0.03,117.4
2023-12-20T05:37:03,42.805,6.029,0.029,-0.001,-0.029,107.0,106.0,103.0,13.4,1505.2,359.1,-0.8,1.8,2471.414,13.29,0.029,92.0
2023-12-20T05:40:03,42.805,6.029,0.015,-0.011,-0.004,106.0,106.0,103.0,13.4,1505.2,343.1,-0.8,1.8,2471.467,13.29,0.018,126.3
2023-12-20T05:43:03,42.805,6.029,0.031,-0.005,0.014,107.0,105.0,104.0,13.4,1505.2,358.3,-0.7,1.8,2471.414,13.29,0.031,99.2
2023-12-20T05:46:03,42.805,6.029,0.036,-0.022,-0.023,106.0,106.0,104.0,13.3,1505.2,344.9,-0.8,1.8,2471.435,13.29,0.042,121.4
2023-12-20T05:49:03,42.805,6.029,0.0,-0.027,-0.025,106.0,107.0,104.0,13.3,1505.2,1.6,-0.7,1.8,2471.416,13.29,0.026,180.0
2023-12-20T05:52:03,42.805,6.029,0.014,0.005,-0.018,106.0,106.0,104.0,13.3,1505.2,346.9,-0.7,1.8,2471.429,13.29,0.014,70.4
2023-12-20T05:55:03,42.805,6.029,0.017,-0.019,0.007,106.0,105.0,102.0,13.4,1505.2,0.0,-0.8,1.8,2471.396,13.29,0.025,138.2
2023-12-20T05:58:03,42.805,6.029,0.017,0.002,-0.043,106.0,106.0,104.0,13.4,1505.2,349.5,-0.8,1.8,2471.454,13.29,0.017,83.3
2023-12-20T06:04:03,42.805,6.029,0.01,0.0,-0.037,108.0,107.0,103.0,13.4,1505.2,354.7,-0.8,1.8,2471.495,13.28,0.01,90.0
2023-12-20T06:07:03,42.805,6.029,0.025,-0.02,-0.031,106.0,106.0,104.0,13.4,1505.2,352.7,-0.7,1.8,2471.495,13.29,0.032,128.7
2023-12-20T06:10:03,42.805,6.029,0.013,-0.023,-0.006,106.0,107.0,103.0,13.3,1505.2,350.8,-0.7,1.8,2471.488,13.29,0.026,150.5
2023-12-20T06:13:03,42.805,6.029,0.012,-0.005,-0.003,106.0,106.0,103.0,13.4,1505.2,1.5,-0.8,1.8,2471.42,13.29,0.013,112.6
2023-12-20T06:16:03,42.805,6.029,0.027,0.001,-0.002,106.0,105.0,103.0,13.4,1505.2,336.9,-0.8,1.8,2471.469,13.29,0.027,87.9
2023-12-20T06:19:03,42.805,6.029,0.048,-0.017,0.012,106.0,105.0,103.0,13.3,1505.2,343.8,-0.8,1.8,2471.446,13.29,0.05,109.5
2023-12-20T06:22:03,42.805,6.029,0.019,-0.005,-0.004,105.0,107.0,104.0,13.3,1505.2,353.8,-0.8,1.8,2471.422,13.29,0.019,104.7
2023-12-20T06:25:03,42.805,6.029,0.013,0.0,-0.003,106.0,105.0,104.0,13.4,1505.2,353.1,-0.8,1.8,2471.452,13.29,0.013,90.0
2023-12-20T06:28:03,42.805,6.029,0.027,-0.005,0.015,108.0,106.0,103.0,13.4,1505.2,340.1,-0.8,1.8,2471.425,13.29,0.027,100.5
2023-12-20T06:31:03,42.805,6.029,0.035,-0.028,-0.003,107.0,106.0,105.0,13.4,1505.2,347.6,-0.8,1.8,2471.428,13.29,0.044,128.7
2023-12-20T06:34:03,42.805,6.029,0.01,-0.026,-0.018,106.0,107.0,104.0,13.4,1505.2,2.4,-0.8,1.8,2471.453,13.29,0.027,159.0
2023-12-20T06:37:03,42.805,6.029,0.028,-0.016,-0.018,108.0,104.0,104.0,13.3,1505.2,339.6,-0.7,1.8,2471.414,13.29,0.032,119.7
2023-12-20T06:40:03,42.805,6.029,0.029,0.012,0.001,105.0,106.0,103.0,13.4,1505.2,358.3,-0.8,1.8,2471.419,13.29,0.031,67.5
2023-12-20T06:43:03,42.805,6.029,0.021,-0.018,-0.006,106.0,106.0,107.0,13.4,1505.2,347.7,-0.8,1.8,2471.455,13.29,0.027,130.6
2023-12-20T06:46:03,42.805,6.029,0.006,-0.01,-0.015,106.0,107.0,104.0,13.4,1505.2,358.2,-0.7,1.8,2471.413,13.29,0.011,149.0
2023-12-20T06:49:03,42.805,6.029,0.022,0.003,-0.003,106.0,106.0,105.0,13.4,1505.2,346.1,-0.8,1.8,2471.441,13.29,0.022,82.2
2023-12-20T06:52:03,42.805,6.029,0.03,-0.018,-0.002,106.0,107.0,104.0,13.4,1505.2,346.7,-0.7,1.8,2471.443,13.29,0.034,121.0
2023-12-20T06:55:03,42.805,6.029,0.013,-0.009,-0.024,108.0,107.0,104.0,13.4,1505.2,348.3,-0.7,1.8,2471.429,13.29,0.015,124.7
2023-12-20T06:58:03,42.805,6.029,0.019,-0.019,-0.023,106.0,106.0,104.0,13.4,1505.2,359.2,-0.7,1.7,2471.453,13.29,0.026,135.0
2023-12-20T07:04:03,42.805,6.029,0.017,-0.012,-0.007,106.0,106.0,104.0,13.3,1505.2,4.0,-0.8,1.8,2471.434,13.28,0.02,125.2
2023-12-20T07:07:03,42.805,6.029,-0.002,-0.013,-0.023,106.0,106.0,103.0,13.4,1505.2,348.6,-0.7,1.8,2471.489,13.29,0.013,188.7
2023-12-20T07:10:03,42.805,6.029,0.025,-0.015,0.006,106.0,106.0,103.0,13.4,1505.2,358.2,-0.8,1.8,2471.407,13.29,0.029,121.0
2023-12-20T07:13:03,42.805,6.029,0.023,-0.021,-0.011,108.0,106.0,104.0,13.4,1505.2,345.9,-0.8,1.8,2471.463,13.29,0.031,132.4
2023-12-20T07:16:03,42.805,6.029,0.019,-0.018,-0.005,106.0,107.0,103.0,13.4,1505.2,346.5,-0.8,1.8,2471.438,13.29,0.026,133.5
2023-12-20T07:19:03,42.805,6.029,0.002,-0.038,-0.008,106.0,106.0,103.0,13.3,1505.2,3.2,-0.8,1.8,2471.471,13.29,0.038,177.0
2023-12-20T07:22:03,42.805,6.029,0.031,-0.013,0.014,107.0,106.0,104.0,13.3,1505.2,343.0,-0.8,1.8,2471.421,13.29,0.033,112.7
2023-12-20T07:25:03,42.805,6.029,0.018,-0.021,0.03,107.0,105.0,103.0,13.4,1505.2,355.8,-0.7,1.8,2471.422,13.29,0.027,139.4
2023-12-20T07:28:03,42.805,6.029,0.027,-0.033,-0.002,106.0,106.0,104.0,13.3,1505.2,348.6,-0.7,1.8,2471.475,13.29,0.042,140.7
2023-12-20T07:31:03,42.805,6.029,0.0,-0.022,-0.016,106.0,105.0,104.0,13.4,1505.2,2.3,-0.8,1.8,2471.431,13.29,0.022,180.0
2023-12-20T07:34:03,42.805,6.029,0.022,-0.024,-0.012,106.0,105.0,104.0,13.4,1505.2,355.7,-0.7,1.8,2471.437,13.29,0.032,137.5
2023-12-20T07:37:03,42.805,6.029,0.016,-0.019,0.013,107.0,106.0,103.0,13.3,1505.2,353.3,-0.8,1.8,2471.406,13.29,0.024,139.9
2023-12-20T07:40:03,42.805,6.029,0.013,-0.017,-0.012,105.0,105.0,103.0,13.4,1505.2,356.7,-0.8,1.8,2471.401,13.29,0.021,142.6
2023-12-20T07:43:03,42.805,6.029,0.027,-0.023,-0.045,106.0,105.0,103.0,13.4,1505.2,358.3,-0.8,1.8,2471.427,13.29,0.035,130.4
2023-12-20T07:46:03,42.805,6.029,0.005,0.005,-0.02,105.0,106.0,103.0,13.4,1505.2,345.4,-0.7,1.8,2471.436,13.29,0.007,45.0
2023-12-20T07:49:03,42.805,6.029,0.01,-0.016,-0.025,108.0,105.0,103.0,13.4,1505.2,346.3,-0.8,1.8,2471.41,13.29,0.018,148.0
2023-12-20T07:52:03,42.805,6.029,0.02,-0.033,-0.006,105.0,105.0,103.0,13.4,1505.2,348.9,-0.8,1.8,2471.448,13.29,0.038,148.8
2023-12-20T07:55:03,42.805,6.029,0.03,-0.016,-0.026,107.0,105.0,104.0,13.4,1505.2,348.9,-0.8,1.8,2471.42,13.29,0.034,118.1
2023-12-20T07:58:03,42.805,6.029,0.007,-0.028,-0.015,107.0,105.0,103.0,13.3,1505.2,0.0,-0.7,1.8,2471.406,13.29,0.028,166.0
2023-12-20T08:04:03,42.805,6.029,0.027,-0.02,0.009,106.0,106.0,103.0,13.4,1505.2,347.2,-0.7,1.8,2471.451,13.28,0.033,126.5
2023-12-20T08:07:03,42.805,6.029,0.028,-0.032,-0.01,106.0,106.0,102.0,13.3,1505.2,345.6,-0.8,1.8,2471.466,13.28,0.042,138.8
2023-12-20T08:10:03,42.805,6.029,0.04,-0.034,0.012,107.0,105.0,103.0,13.4,1505.2,345.7,-0.8,1.8,2471.455,13.29,0.052,130.4
2023-12-20T08:13:04,42.805,6.029,0.015,-0.028,0.004,106.0,106.0,103.0,13.4,1505.2,356.2,-0.8,1.8,2471.455,13.29,0.031,151.8
2023-12-20T08:16:03,42.805,6.029,0.023,-0.019,-0.017,106.0,106.0,103.0,13.3,1505.2,356.6,-0.8,1.8,2471.476,13.29,0.029,129.6
2023-12-20T08:19:03,42.805,6.029,0.02,-0.004,0.02,105.0,105.0,103.0,13.3,1505.2,0.0,-0.8,1.8,2471.42,13.29,0.02,101.3
2023-12-20T08:22:03,42.805,6.029,0.016,-0.001,-0.001,107.0,106.0,103.0,13.4,1505.2,355.8,-0.8,1.8,2471.437,13.29,0.016,93.6
2023-12-20T08:25:03,42.805,6.029,0.037,-0.042,-0.001,107.0,106.0,105.0,13.3,1505.2,0.7,-0.8,1.8,2471.464,13.29,0.055,138.6
2023-12-20T08:28:03,42.805,6.029,0.011,-0.022,-0.015,105.0,106.0,104.0,13.4,1505.2,340.2,-0.8,1.8,2471.46,13.29,0.024,153.4
2023-12-20T08:31:03,42.805,6.029,0.009,-0.006,-0.006,106.0,106.0,104.0,13.4,1505.2,0.0,-0.8,1.8,2471.45,13.29,0.01,123.7
2023-12-20T08:34:03,42.805,6.029,0.033,-0.023,-0.021,106.0,106.0,103.0,13.3,1505.2,353.9,-0.8,1.8,2471.436,13.29,0.04,124.9
2023-12-20T08:37:03,42.805,6.029,0.029,-0.024,0.005,105.0,105.0,104.0,13.3,1505.2,355.4,-0.8,1.8,2471.433,13.29,0.037,129.6
2023-12-20T08:40:03,42.805,6.029,0.015,-0.028,-0.009,107.0,106.0,103.0,13.3,1505.2,355.7,-0.8,1.9,2471.435,13.29,0.031,151.8
2023-12-20T08:43:03,42.805,6.029,0.0,-0.008,-0.023,107.0,106.0,103.0,13.4,1505.2,342.7,-0.7,1.8,2471.468,13.29,0.008,180.0
2023-12-20T08:46:03,42.805,6.029,0.005,-0.018,0.021,105.0,106.0,103.0,13.4,1505.2,346.7,-0.7,1.8,2471.439,13.29,0.018,164.5
2023-12-20T08:49:03,42.805,6.029,0.02,-0.008,-0.007,107.0,104.0,103.0,13.3,1505.2,352.9,-0.8,1.8,2471.45,13.29,0.021,111.8
2023-12-20T08:52:03,42.805,6.029,0.022,-0.015,0.008,107.0,106.0,102.0,13.3,1505.2,352.4,-0.7,1.8,2471.462,13.29,0.026,124.3
2023-12-20T08:55:03,42.805,6.029,0.036,-0.047,-0.002,105.0,105.0,103.0,13.4,1505.2,355.1,-0.8,1.8,2471.465,13.29,0.059,142.5
2023-12-20T08:58:03,42.805,6.029,-0.001,-0.02,-0.018,107.0,106.0,103.0,13.4,1505.2,0.0,-0.8,1.8,2471.446,13.29,0.02,182.9
2023-12-20T09:04:03,42.805,6.029,0.016,-0.025,-0.034,105.0,106.0,104.0,13.4,1505.2,349.9,-0.8,1.8,2471.495,13.28,0.029,147.4
2023-12-20T09:07:03,42.805,6.029,0.018,-0.028,-0.027,105.0,105.0,103.0,13.4,1505.2,3.8,-0.8,1.8,2471.499,13.29,0.033,147.3
2023-12-20T09:10:03,42.805,6.029,0.004,-0.002,-0.015,108.0,105.0,103.0,13.3,1505.2,340.1,-0.8,1.8,2471.483,13.29,0.004,116.6
2023-12-20T09:13:03,42.805,6.029,0.011,-0.012,-0.016,107.0,107.0,102.0,13.4,1505.2,354.8,-0.8,1.8,2471.514,13.29,0.016,137.5
2023-12-20T09:16:03,42.805,6.029,0.027,-0.023,-0.011,106.0,106.0,103.0,13.4,1505.2,356.4,-0.8,1.8,2471.511,13.29,0.035,130.4
2023-12-20T09:19:05,42.805,6.029,0.016,-0.021,0.003,107.0,106.0,104.0,13.3,1505.2,346.1,-0.8,1.9,2471.501,13.29,0.026,142.7
2023-12-20T09:22:03,42.805,6.029,0.008,-0.024,-0.038,105.0,105.0,105.0,13.4,1505.2,351.8,-0.8,1.8,2471.444,13.29,0.025,161.6
2023-12-20T09:25:03,42.805,6.029,0.013,-0.017,-0.014,106.0,105.0,105.0,13.4,1505.2,3.1,-0.8,1.8,2471.504,13.29,0.021,142.6
2023-12-20T09:28:03,42.805,6.029,0.018,-0.027,-0.06,107.0,106.0,104.0,13.4,1505.2,338.4,-0.8,1.8,2471.472,13.29,0.032,146.3
2023-12-20T09:31:03,42.805,6.029,0.002,-0.028,-0.027,107.0,106.0,104.0,13.4,1505.2,345.9,-0.8,1.8,2471.482,13.29,0.028,175.9
2023-12-20T09:34:03,42.805,6.029,0.018,-0.035,-0.02,106.0,105.0,104.0,13.4,1505.2,359.1,-0.7,1.8,2471.464,13.29,0.039,152.8
2023-12-20T09:37:03,42.805,6.029,0.029,-0.008,0.002,107.0,106.0,103.0,13.4,1505.2,341.3,-0.7,1.8,2471.475,13.29,0.03,105.4
2023-12-20T09:40:03,42.805,6.029,0.009,-0.012,-0.019,106.0,106.0,104.0,13.4,1505.2,355.8,-0.8,1.8,2471.485,13.29,0.015,143.1
2023-12-20T09:43:03,42.805,6.029,0.003,-0.049,-0.034,106.0,106.0,104.0,13.4,1505.2,0.7,-0.8,1.8,2471.493,13.29,0.049,176.5
2023-12-20T09:46:03,42.805,6.029,0.018,-0.029,0.01,106.0,105.0,104.0,13.4,1505.2,346.8,-0.8,1.8,2471.52,13.29,0.034,148.2
2023-12-20T09:49:03,42.805,6.029,-0.004,-0.017,0.007,106.0,106.0,104.0,13.4,1505.2,357.3,-0.8,1.8,2471.512,13.29,0.017,193.2
2023-12-20T09:52:03,42.805,6.029,0.018,-0.003,0.014,106.0,105.0,103.0,13.3,1505.2,342.2,-0.8,1.8,2471.497,13.29,0.018,99.5
2023-12-20T09:55:03,42.805,6.029,0.012,-0.004,0.0,107.0,105.0,104.0,13.3,1505.2,354.6,-0.8,1.8,2471.492,13.29,0.012,108.4
2023-12-20T09:58:03,42.805,6.029,-0.017,-0.024,-0.024,107.0,105.0,103.0,13.4,1505.2,0.0,-0.8,1.8,2471.502,13.29,0.029,215.3
2023-12-20T10:04:03,42.805,6.029,0.017,-0.038,-0.015,105.0,105.0,103.0,13.3,1505.2,0.8,-0.8,1.8,2471.544,13.28,0.041,155.9